timestamp,wind_dir_avg,wind_spd_avg,wind_spd_max_dir,wind_spd_gust,battery_voltage,lat,long
2022-01-12 00:04:00+00:00,315.0,7.69,297.0,10.8,12.49,47.59359,-54.27349
2022-01-12 00:14:00+00:00,305.0,9.15,307.0,12.32,12.41,47.59359,-54.27349
2022-01-12 00:24:00+00:00,334.0,7.49,317.0,9.13,12.41,47.59359,-54.27349
2022-01-12 00:34:00+00:00,315.0,7.77,301.0,10.83,12.41,47.59359,-54.27349
2022-01-12 00:44:00+00:00,323.0,6.16,298.0,8.64,12.41,47.59359,-54.27349
2022-01-12 00:54:00+00:00,310.0,7.11,297.0,11.39,12.41,47.59359,-54.27349
2022-01-12 01:04:00+00:00,305.0,8.37,300.0,11.02,12.41,47.59359,-54.27349
2022-01-12 01:14:00+00:00,329.0,6.06,329.0,7.61,12.41,47.59359,-54.27349
2022-01-12 01:24:00+00:00,359.0,4.87,345.0,7.09,12.41,47.59359,-54.27349
2022-01-12 01:34:00+00:00,349.0,5.75,332.0,7.2,12.41,47.59359,-54.27349
2022-01-12 01:44:00+00:00,322.0,8.05,310.0,11.37,12.41,47.59359,-54.27349
2022-01-12 01:54:00+00:00,319.0,6.41,297.0,9.21,12.41,47.59359,-54.27349
2022-01-12 02:04:00+00:00,311.0,7.7,298.0,11.18,12.41,47.59359,-54.27349
2022-01-12 02:14:00+00:00,308.0,7.98,303.0,11.19,12.41,47.59359,-54.27349
2022-01-12 02:24:00+00:00,320.0,6.87,298.0,10.19,12.41,47.59359,-54.27349
2022-01-12 02:34:00+00:00,313.0,6.54,298.0,10.56,12.41,47.59359,-54.27349
2022-01-12 02:44:00+00:00,323.0,6.16,310.0,9.12,12.41,47.59359,-54.27349
2022-01-12 02:54:00+00:00,322.0,4.57,323.0,5.89,12.41,47.59359,-54.27349
2022-01-12 03:04:00+00:00,312.0,6.61,298.0,10.76,12.41,47.59359,-54.27349
2022-01-12 03:14:00+00:00,294.0,9.54,297.0,10.45,12.41,47.59359,-54.27349
2022-01-12 03:24:00+00:00,288.0,7.08,290.0,10.8,12.41,47.59359,-54.27349
2022-01-12 03:34:00+00:00,282.0,9.37,286.0,10.06,12.41,47.59359,-54.27349
2022-01-12 03:44:00+00:00,284.0,10.03,282.0,10.8,12.41,47.59359,-54.27349
2022-01-12 03:54:00+00:00,294.0,10.56,293.0,11.28,12.41,47.59359,-54.27349
2022-01-12 04:04:00+00:00,287.0,9.92,291.0,11.27,12.41,47.59359,-54.27349
2022-01-12 04:14:00+00:00,290.0,10.23,291.0,11.28,12.33,47.59359,-54.27349
2022-01-12 04:24:00+00:00,288.0,8.78,289.0,10.47,12.33,47.59359,-54.27349
2022-01-12 04:34:00+00:00,300.0,4.08,303.0,4.95,12.33,47.59359,-54.27349
2022-01-12 04:44:00+00:00,289.0,8.13,288.0,11.31,12.33,47.59359,-54.27349
2022-01-12 04:54:00+00:00,302.0,8.11,301.0,11.37,12.33,47.59359,-54.27349
2022-01-12 05:04:00+00:00,296.0,7.66,293.0,11.01,12.33,47.59359,-54.27349
2022-01-12 05:14:00+00:00,311.0,5.83,303.0,10.35,12.33,47.59359,-54.27349
2022-01-12 05:24:00+00:00,295.0,6.61,289.0,10.08,12.33,47.59359,-54.27349
2022-01-12 05:34:00+00:00,292.0,9.64,288.0,11.01,12.33,47.59359,-54.27349
2022-01-12 05:44:00+00:00,284.0,9.38,281.0,10.71,12.33,47.59359,-54.27349
2022-01-12 05:54:00+00:00,287.0,9.11,289.0,11.29,12.33,47.59359,-54.27349
2022-01-12 06:04:00+00:00,287.0,9.27,285.0,11.01,12.33,47.59359,-54.27349
2022-01-12 06:14:00+00:00,283.0,8.97,287.0,10.86,12.25,47.59359,-54.27349
2022-01-12 06:24:00+00:00,297.0,9.52,293.0,11.24,12.25,47.59359,-54.27349
2022-01-12 06:34:00+00:00,292.0,9.75,290.0,10.91,12.25,47.59359,-54.27349
2022-01-12 06:44:00+00:00,298.0,8.84,306.0,11.51,12.25,47.59359,-54.27349
2022-01-12 06:54:00+00:00,301.0,7.78,296.0,10.18,12.25,47.59359,-54.27349
2022-01-12 07:04:00+00:00,288.0,9.01,285.0,10.09,12.25,47.59359,-54.27349
2022-01-12 07:14:00+00:00,298.0,6.09,287.0,9.45,12.25,47.59359,-54.27349
2022-01-12 07:24:00+00:00,296.0,5.93,287.0,9.61,12.25,47.59359,-54.27349
2022-01-12 07:34:00+00:00,320.0,5.02,298.0,7.82,12.25,47.59359,-54.27349
2022-01-12 07:44:00+00:00,298.0,5.44,290.0,9.42,12.25,47.59359,-54.27349
2022-01-12 07:54:00+00:00,298.0,6.62,296.0,9.72,12.25,47.59359,-54.27349
2022-01-12 08:04:00+00:00,287.0,6.57,284.0,9.27,12.25,47.59359,-54.27349
2022-01-12 08:14:00+00:00,312.0,4.73,311.0,5.51,12.25,47.59359,-54.27349
2022-01-12 08:24:00+00:00,290.0,6.32,286.0,9.66,12.25,47.59359,-54.27349
2022-01-12 08:34:00+00:00,296.0,6.99,291.0,9.76,12.25,47.59359,-54.27349
2022-01-12 08:44:00+00:00,291.0,8.68,300.0,10.98,12.25,47.59359,-54.27349
2022-01-12 08:54:00+00:00,300.0,8.36,298.0,10.49,12.25,47.59359,-54.27349
2022-01-12 09:04:00+00:00,278.0,8.91,294.0,10.98,12.25,47.59359,-54.27349
2022-01-12 09:14:00+00:00,287.0,8.95,289.0,10.57,12.17,47.59359,-54.27349
2022-01-12 09:24:00+00:00,294.0,9.83,301.0,10.97,12.17,47.59359,-54.27349
2022-01-12 09:34:00+00:00,289.0,8.18,282.0,10.73,12.17,47.59359,-54.27349
2022-01-12 09:44:00+00:00,280.0,9.37,284.0,10.87,12.17,47.59359,-54.27349
2022-01-12 09:54:00+00:00,284.0,9.64,284.0,11.0,12.17,47.59359,-54.27349
2022-01-12 10:04:00+00:00,288.0,9.96,290.0,11.12,12.17,47.59359,-54.27349
2022-01-12 10:14:00+00:00,299.0,9.72,299.0,11.14,12.17,47.59359,-54.27349
2022-01-12 10:24:00+00:00,300.0,7.62,290.0,10.51,12.17,47.59359,-54.27349
2022-01-12 10:34:00+00:00,294.0,10.03,296.0,11.53,12.17,47.59359,-54.27349
2022-01-12 10:44:00+00:00,283.0,8.61,284.0,10.79,12.17,47.59359,-54.27349
2022-01-12 10:54:00+00:00,298.0,6.37,289.0,9.59,12.17,47.59359,-54.27349
2022-01-12 11:04:00+00:00,315.0,5.91,294.0,9.86,12.17,47.59359,-54.27349
2022-01-12 11:14:00+00:00,298.0,5.9,283.0,10.75,12.17,47.59359,-54.27349
2022-01-12 11:24:00+00:00,295.0,7.15,287.0,9.67,12.17,47.59359,-54.27349
2022-01-12 11:34:00+00:00,292.0,9.64,293.0,11.0,12.17,47.59359,-54.27349
2022-01-12 11:44:00+00:00,294.0,9.61,292.0,11.17,12.17,47.59359,-54.27349
2022-01-12 11:54:00+00:00,291.0,9.96,292.0,11.11,12.17,47.59359,-54.27349
2022-01-12 12:04:00+00:00,293.0,10.45,292.0,11.42,12.17,47.59359,-54.27349
2022-01-12 12:14:00+00:00,281.0,9.4,284.0,10.27,14.32,47.59359,-54.27349
2022-01-12 12:24:00+00:00,299.0,5.98,287.0,9.09,14.32,47.59359,-54.27349
2022-01-12 12:34:00+00:00,283.0,6.94,289.0,9.31,14.32,47.59359,-54.27349
2022-01-12 12:44:00+00:00,292.0,7.48,292.0,9.89,14.32,47.59359,-54.27349
2022-01-12 12:54:00+00:00,284.0,9.34,299.0,11.15,14.32,47.59359,-54.27349
2022-01-12 13:04:00+00:00,293.0,8.07,289.0,9.66,14.32,47.59359,-54.27349
2022-01-12 14:14:00+00:00,231.0,1.29,245.0,3.81,13.92,47.59359,-54.27349
2022-01-12 14:24:00+00:00,284.0,4.06,267.0,10.79,13.92,47.59359,-54.27349
2022-01-12 14:34:00+00:00,260.0,3.98,259.0,5.22,13.92,47.59359,-54.27349
2022-01-12 14:44:00+00:00,63.0,1.14,282.0,2.34,13.92,47.59359,-54.27349
2022-01-12 14:54:00+00:00,335.0,1.67,297.0,4.57,13.92,47.59359,-54.27349
2022-01-12 15:04:00+00:00,280.0,3.17,275.0,4.71,13.92,47.59359,-54.27349
2022-01-12 15:14:00+00:00,33.0,2.2,28.0,4.06,13.53,47.59359,-54.27349
2022-01-12 15:24:00+00:00,256.0,3.07,270.0,8.71,13.53,47.59359,-54.27349
2022-01-12 15:34:00+00:00,10.0,1.83,300.0,3.72,13.53,47.59359,-54.27349
2022-01-12 15:44:00+00:00,333.0,2.16,300.0,4.13,13.53,47.59359,-54.27349
2022-01-12 15:54:00+00:00,40.0,2.38,45.0,3.29,13.53,47.59359,-54.27349
2022-01-12 16:04:00+00:00,25.0,2.18,326.0,3.48,13.53,47.59359,-54.27349
2022-01-12 16:14:00+00:00,294.0,4.87,283.0,8.69,13.53,47.59359,-54.27349
2022-01-12 16:24:00+00:00,329.0,2.16,292.0,4.21,13.53,47.59359,-54.27349
2022-01-12 16:34:00+00:00,289.0,6.0,276.0,9.41,13.53,47.59359,-54.27349
2022-01-12 16:44:00+00:00,293.0,2.85,305.0,4.03,13.53,47.59359,-54.27349
2022-01-12 16:54:00+00:00,295.0,3.31,290.0,4.7,13.53,47.59359,-54.27349
2022-01-12 17:04:00+00:00,294.0,1.79,287.0,3.52,13.53,47.59359,-54.27349
2022-01-12 17:14:01+00:00,280.0,3.75,283.0,4.61,13.53,47.59359,-54.27349
2022-01-12 17:24:01+00:00,287.0,3.54,269.0,6.03,13.53,47.59359,-54.27349
2022-01-12 17:34:01+00:00,253.0,2.18,223.0,3.18,13.53,47.59359,-54.27349
2022-01-12 17:44:01+00:00,275.0,2.39,270.0,3.77,13.53,47.59359,-54.27349
2022-01-12 17:54:01+00:00,266.0,4.44,262.0,5.35,13.53,47.59359,-54.27349
2022-01-12 18:04:01+00:00,275.0,3.37,275.0,4.48,13.53,47.59359,-54.27349
2022-01-12 18:14:00+00:00,260.0,3.11,262.0,4.42,13.44,47.59359,-54.27349
2022-01-12 18:24:00+00:00,232.0,3.38,235.0,4.07,13.44,47.59359,-54.27349
2022-01-12 18:34:00+00:00,263.0,1.6,265.0,4.68,13.44,47.59359,-54.27349
2022-01-12 18:44:00+00:00,233.0,4.49,240.0,7.24,13.44,47.59359,-54.27349
2022-01-12 18:54:00+00:00,242.0,4.74,231.0,5.84,13.44,47.59359,-54.27349
2022-01-12 19:04:00+00:00,224.0,5.57,223.0,7.66,13.44,47.59359,-54.27349
2022-01-12 19:14:01+00:00,261.0,5.64,255.0,7.15,13.05,47.59359,-54.27349
2022-01-12 19:24:01+00:00,248.0,3.96,261.0,7.33,13.05,47.59359,-54.27349
2022-01-12 19:34:01+00:00,265.0,5.42,268.0,7.22,13.05,47.59359,-54.27349
2022-01-12 19:44:01+00:00,252.0,3.83,249.0,4.99,13.05,47.59359,-54.27349
2022-01-12 19:54:01+00:00,239.0,4.78,248.0,7.65,13.05,47.59359,-54.27349
2022-01-12 20:04:01+00:00,231.0,4.94,235.0,5.74,13.05,47.59359,-54.27349
2022-01-12 20:14:00+00:00,223.0,5.6,223.0,8.76,12.65,47.59359,-54.27349
2022-01-12 20:24:00+00:00,202.0,6.07,202.0,7.6,12.65,47.59359,-54.27349
2022-01-12 20:34:00+00:00,212.0,3.81,222.0,5.52,12.65,47.59359,-54.27349
2022-01-12 20:44:00+00:00,224.0,4.48,248.0,8.08,12.65,47.59359,-54.27349
2022-01-12 20:54:00+00:00,225.0,3.43,232.0,5.74,12.65,47.59359,-54.27349
2022-01-12 21:04:00+00:00,212.0,5.86,237.0,9.22,12.65,47.59359,-54.27349
2022-01-12 21:14:00+00:00,256.0,3.9,263.0,7.53,12.57,47.59359,-54.27349
2022-01-12 21:24:00+00:00,220.0,6.18,237.0,8.93,12.57,47.59359,-54.27349
2022-01-12 21:34:00+00:00,224.0,8.36,240.0,12.67,12.57,47.59359,-54.27349
2022-01-12 21:44:00+00:00,219.0,6.26,230.0,9.95,12.57,47.59359,-54.27349
2022-01-12 21:54:00+00:00,253.0,11.84,250.0,14.49,12.57,47.59359,-54.27349
2022-01-12 22:04:00+00:00,214.0,7.86,234.0,13.26,12.57,47.59359,-54.27349
2022-01-12 22:14:00+00:00,203.0,6.62,205.0,8.92,12.49,47.59359,-54.27349
2022-01-12 22:24:00+00:00,222.0,9.05,238.0,14.24,12.49,47.59359,-54.27349
2022-01-12 22:34:00+00:00,218.0,8.76,237.0,14.11,12.49,47.59359,-54.27349
2022-01-12 22:44:00+00:00,243.0,10.72,249.0,14.06,12.49,47.59359,-54.27349
2022-01-12 22:54:00+00:00,254.0,11.33,255.0,14.05,12.49,47.59359,-54.27349
2022-01-12 23:04:00+00:00,255.0,9.71,258.0,13.24,12.49,47.59359,-54.27349
2022-01-12 23:14:01+00:00,248.0,8.04,258.0,13.3,12.41,47.59359,-54.27349
2022-01-12 23:24:01+00:00,257.0,8.26,265.0,12.47,12.41,47.59359,-54.27349
2022-01-12 23:34:01+00:00,254.0,12.76,255.0,15.19,12.41,47.59359,-54.27349
2022-01-12 23:44:01+00:00,252.0,9.59,258.0,14.13,12.41,47.59359,-54.27349
2022-01-12 23:54:01+00:00,248.0,11.88,251.0,14.73,12.41,47.59359,-54.27349
